Weather History for Waukesha, WI

Change the Weather History Date:

Sunday, December 1, 2013

  Actual Average Record
Temperature  
Mean Temperature 30 °F -  
Max Temperature 37 °F 35 °F 62 °F (1970)
Min Temperature 24 °F 23 °F 5 °F (1966)
Degree Days  
Heating Degree Days 34    
Moisture  
Dew Point 26 °F    
Average Humidity 86    
Maximum Humidity 100    
Minimum Humidity 60    
Precipitation  
Precipitation 0.00 in - - ()
Sea Level Pressure  
Sea Level Pressure 30.05 in    
Wind  
Wind Speed 3 mph (NNW)    
Max Wind Speed 7 mph    
Max Gust Speed -    
Visibility 8 miles    
Events      
Averages and records for this station are not official NWS values.
T = Trace of Precipitation, MM = Missing Value Source: NWS Daily Summary

Daily Weather History Graph

Daily Weather History Graph

Search for Another Location

Airport:

Trip Planner

Search our weather history database for the weather conditions in past years. The results will help you decide how hot, cold, wet, or windy it might be!

Date:

Astronomy

Dec. 01, 2013 Rise Set
Actual Time 7:04 AM CST 4:19 PM CST
Civil Twilight 6:33 AM CST 4:50 PM CST
Nautical Twilight 5:57 AM CST 5:26 PM CST
Astronomical Twilight 5:23 AM CST 6:00 PM CST
Moon 5:20 AM CST (12/1) 3:30 PM CST (12/1)
Length of Visible Light 10h 17m
Length of Day
9h 14m
Waning Crescent, 2% of the Moon is Illuminated
Dec 1
Waning Crescent
Dec 2
New
Dec 9
First Quarter
Dec 17
Full
Dec 25
Last Quarter

Hourly Weather History & Observations

Time (CST) Temp. Windchill Dew Point Humidity Pressure Visibility Wind Dir Wind Speed Gust Speed Precip Events Conditions
12:15 AM 32.0 °F 27.5 °F 30.2 °F 93% 30.04 in 10.0 mi NW 4.6 mph - N/A   Overcast
12:35 AM 32.0 °F 25.6 °F 30.2 °F 93% 30.04 in 10.0 mi NW 6.9 mph - N/A   Overcast
12:55 AM 32.0 °F 28.7 °F 28.4 °F 87% 30.04 in 10.0 mi NW 3.5 mph - N/A   Overcast
1:15 AM 32.0 °F - 28.4 °F 87% 30.04 in 10.0 mi Calm Calm - N/A   Overcast
1:35 AM 32.0 °F - 28.4 °F 87% 30.05 in 10.0 mi Calm Calm - N/A   Overcast
1:55 AM 32.0 °F - 28.4 °F 87% 30.05 in 10.0 mi Calm Calm - N/A   Overcast
2:15 AM 32.0 °F 28.7 °F 28.4 °F 87% 30.06 in 10.0 mi WNW 3.5 mph - N/A   Overcast
2:35 AM 32.0 °F 27.5 °F 28.4 °F 87% 30.06 in 10.0 mi WNW 4.6 mph - N/A   Overcast
2:55 AM 32.0 °F 28.7 °F 28.4 °F 87% 30.06 in 10.0 mi NW 3.5 mph - N/A   Overcast
3:15 AM 32.0 °F 28.7 °F 28.4 °F 87% 30.06 in 10.0 mi NW 3.5 mph - N/A   Scattered Clouds
3:35 AM 30.2 °F 25.4 °F 26.6 °F 86% 30.06 in 10.0 mi NW 4.6 mph - N/A   Clear
3:55 AM 30.2 °F 26.7 °F 26.6 °F 86% 30.06 in 10.0 mi NW 3.5 mph - N/A   Clear
4:15 AM 30.2 °F - 26.6 °F 86% 30.06 in 10.0 mi Calm Calm - N/A   Clear
4:35 AM 28.4 °F 24.6 °F 26.6 °F 93% 30.08 in 7.0 mi NNW 3.5 mph - N/A   Clear
5:45 AM 28.4 °F 23.3 °F 26.6 °F 93% 30.09 in 7.0 mi North 4.6 mph - N/A   Mostly Cloudy
6:45 AM 28.4 °F 22.2 °F 26.6 °F 93% 30.10 in 7.0 mi NNW 5.8 mph - N/A   Overcast
7:45 AM 28.4 °F 23.3 °F 24.8 °F 86% 30.11 in 7.0 mi North 4.6 mph - N/A   Mostly Cloudy
8:45 AM 30.2 °F 23.4 °F 26.6 °F 86% 30.11 in 7.0 mi North 6.9 mph - N/A   Partly Cloudy
9:45 AM 33.8 °F 28.6 °F 26.6 °F 75% 30.12 in 7.0 mi North 5.8 mph - N/A   Clear
10:45 AM 35.6 °F 29.9 °F 26.6 °F 70% 30.12 in 10.0 mi North 6.9 mph - N/A   Clear
11:45 AM 37.4 °F 32.1 °F 24.8 °F 60% 30.10 in 10.0 mi NNW 6.9 mph - N/A   Clear
12:45 PM 37.4 °F 32.1 °F 24.8 °F 60% 30.08 in 10.0 mi North 6.9 mph - N/A   Scattered Clouds
1:45 PM 37.4 °F 32.1 °F 24.8 °F 60% 30.05 in 10.0 mi North 6.9 mph - N/A   Clear
3:45 PM 35.6 °F 32.8 °F 23.0 °F 60% 30.04 in 10.0 mi NNE 3.5 mph - N/A   Scattered Clouds
4:45 PM 30.2 °F 24.3 °F 24.8 °F 80% 30.04 in 10.0 mi East 5.8 mph - N/A   Mostly Cloudy
5:45 PM 30.2 °F - 26.6 °F 86% 30.04 in 10.0 mi Calm Calm - N/A   Mostly Cloudy
6:45 PM 28.4 °F - 24.8 °F 86% 30.04 in 10.0 mi Calm Calm - N/A   Scattered Clouds
7:45 PM 24.8 °F - 23.0 °F 93% 30.04 in 10.0 mi Calm Calm - N/A   Scattered Clouds
8:15 PM 26.6 °F - 23.0 °F 86% 30.04 in 5.0 mi Calm Calm - N/A   Clear
8:35 PM 26.6 °F - 23.0 °F 86% 30.04 in 7.0 mi Calm Calm - N/A   Clear
8:45 PM 24.8 °F - 21.2 °F 86% 30.04 in 10.0 mi Calm Calm - N/A   Scattered Clouds
8:55 PM 26.6 °F - 24.8 °F 93% 30.04 in 5.0 mi Calm Calm - N/A   Clear
9:15 PM 26.6 °F - 24.8 °F 93% 30.04 in 5.0 mi Calm Calm - N/A   Scattered Clouds
9:35 PM 24.8 °F 20.5 °F 23.0 °F 93% 30.03 in 5.0 mi West 3.5 mph - N/A   Clear
9:55 PM 26.6 °F - 24.8 °F 93% 30.02 in 5.0 mi Calm Calm - N/A   Mostly Cloudy
10:15 PM 26.6 °F - 24.8 °F 93% 30.02 in 5.0 mi Calm Calm - N/A   Overcast
10:35 PM 26.6 °F - 24.8 °F 93% 30.01 in 5.0 mi Calm Calm - N/A   Overcast
10:55 PM 26.6 °F - 24.8 °F 93% 30.00 in 5.0 mi Calm Calm - N/A   Overcast
11:15 PM 26.6 °F - 26.6 °F 100% 29.99 in 5.0 mi Calm Calm - N/A   Scattered Clouds
11:35 PM 26.6 °F - 24.8 °F 93% 29.98 in 5.0 mi Calm Calm - N/A   Clear
11:55 PM 26.6 °F - 24.8 °F 93% 29.98 in 5.0 mi Calm Calm - N/A   Clear